This demonstration page uses our WeatherBlox Daily Observations layout. Learn more.

Left ArrowRight Arrow

34.16533, -84.80231

Hourly Observations for May 10, 2017

Temp ( °F °C ) Dew Point ( °F °C ) Humidity (%) Winds ( mph kmh ) Pressure ( in mb ) Visibility ( mi km ) Precip ( " mm )
12:53 am 00:53 Clear 59 15 58 14.4 96 96 Calm 30.00 1016 10 16 0.00 0.00
1:53 am 01:53 Clear 58 14.4 58 14.4 100 100 Calm 30.00 1016 10 16 0.00 0.00
2:53 am 02:53 Clear 57 13.9 57 13.9 100 100 Calm 30.00 1016 10 16 0.00 0.00
3:53 am 03:53 Clear 55 12.8 55 12.8 100 100 Calm 30.00 1016 10 16 0.00 0.00
4:53 am 04:53 Clear 54 12.2 54 12.2 100 100 Calm 30.02 1017 10 16 0.00 0.00
5:53 am 05:53 Clear 55 12.8 55 12.8 100 100 Calm 30.03 1017 10 16 0.00 0.00
6:53 am 06:53 Sunny 55 12.8 55 12.8 100 100 Calm 30.05 1018 8 13 0.00 0.00
7:53 am 07:53 Sunny 58 14.4 58 14.4 100 100 Calm 30.06 1018 10 16 0.00 0.00
8:53 am 08:53 Sunny 65 18.3 61 16.1 87 87 Calm 30.07 1018 10 16 0.00 0.00
9:53 am 09:53 Sunny 71 21.7 63 17.2 76 76 Calm 30.07 1018 10 16 0.00 0.00
10:53 am 10:53 Sunny 76 24.4 64 17.8 67 67 Calm 30.07 1018 10 16 0.00 0.00
11:53 am 11:53 Mostly Sunny 80 26.7 63 17.2 56 56 VRB 5 7 30.08 1019 10 16 0.00 0.00
12:53 pm 12:53 Mostly Sunny 82 27.8 63 17.2 53 53 NNW 6 9 30.04 1017 10 16 0.00 0.00
1:53 pm 13:53 Sunny 83 28.3 60 15.6 46 46 VRB 3 6 30.04 1017 10 16 0.00 0.00
2:53 pm 14:53 Sunny 83 28.3 61 16.1 48 48 VRB 3 6 30.02 1017 10 16 0.00 0.00
3:53 pm 15:53 Sunny 85 29.4 59 15 42 42 VRB 5 7 30.00 1016 10 16 0.00 0.00
4:53 pm 16:53 Sunny 85 29.4 61 16.1 45 45 VRB 3 6 29.98 1015 10 16 0.00 0.00
5:53 pm 17:53 Sunny 84 28.9 60 15.6 44 44 VRB 3 6 29.98 1015 10 16 0.00 0.00
6:53 pm 18:53 Sunny 84 28.9 60 15.6 44 44 Calm 29.97 1015 10 16 0.00 0.00
7:53 pm 19:53 Sunny 78 25.6 62 16.7 58 58 Calm 29.97 1015 10 16 0.00 0.00
8:53 pm 20:53 Clear 71 21.7 64 17.8 79 79 Calm 29.98 1015 10 16 0.00 0.00
9:53 pm 21:53 Clear 68 20 64 17.8 87 87 Calm 29.99 1016 10 16 0.00 0.00
10:53 pm 22:53 Clear 67 19.4 64 17.8 91 91 Calm 30.00 1016 10 16 0.00 0.00
11:53 pm 23:53 Clear 63 17.2 63 17.2 100 100 Calm 29.99 1016 10 16 0.00 0.00

Powered by AerisWeather